Flag for Andorra Weather past 2 weeks in Andorra La Vella, Andorra

Now
52 °F

Mostly cloudy.


Feels Like: 48 °F
Forecast: 25 / 50 °F
Wind: 12 mph from West

Location: Carcassonne Airport

Current Time: Dec 19, 2014 at 8:26:35 AM

Latest Report: Dec 19, 2014 at 8:00 AM


Visibility: N/A

Pressure: 30.39 "Hg

Humidity: 94%

Dew point: 50 °F

Location of Andorra La VellaLocation

Historic Weather in Andorra La Vella — Graph

°F

Andorra La Vella temperature yesterday

Maximum temperature yesterday: 55 °F (at 2:00 PM)
Minimum temperature yesterday: 50 °F (at 12:00 AM)
Average temperature yesterday: 53 °F

Past Weeks' High & Low Weather Summary

 TemperatureHumidityPressure
High55 °F (Dec 13, 1:00 PM)100% (Dec 6, 12:30 AM)30.48 "Hg (Dec 6, 12:30 AM)
Low36 °F (Dec 10, 6:00 AM)47% (Dec 10, 2:00 PM)29.83 "Hg (Dec 13, 5:30 AM)
Average46 °F83%30.16 "Hg
* Reported Dec 4 7:00 AM — Dec 19 7:00 AM, Andorra La Vella, Weather by CustomWeather, © 2014

Note: Actual official high and low records may vary slightly from our data, if they occured in-between our weather recording intervals... More about our weather records

Advertising

Andorra La Vella weather history for previous 24 hours

 ConditionsComfort  
Time TempWeatherWind HumidityBarometerVisibility
7:00 AM
Dec 19
52 °FLow clouds.14 mph94%30.36 "HgN/A
6:30 AM52 °FLow clouds.13 mph94%30.36 "HgN/A
6:00 AM52 °FOvercast.12 mph94%30.36 "HgN/A
5:30 AM52 °FDrizzle. Mostly cloudy.14 mph94%30.36 "HgN/A
5:00 AM52 °FPartly cloudy.13 mph94%30.36 "HgN/A
4:30 AM52 °FPassing clouds.13 mph94%30.39 "HgN/A
4:00 AM52 °FLow clouds.15 mph94%30.39 "HgN/A
3:30 AM52 °FMostly cloudy.12 mph94%30.39 "HgN/A
3:00 AM52 °FMostly cloudy.12 mph94%30.39 "HgN/A
2:30 AM52 °FMostly cloudy.12 mph94%30.39 "HgN/A
2:00 AM52 °FMostly cloudy.13 mph94%30.39 "HgN/A
1:30 AM54 °FMostly cloudy.12 mph88%30.39 "HgN/A
1:00 AM54 °FOvercast.13 mph88%30.39 "HgN/A
12:30 AM54 °FOvercast.14 mph88%30.39 "HgN/A
12:00 AM54 °FOvercast.14 mph88%30.39 "HgN/A
11:30 PM
Dec 18
54 °FMostly cloudy.14 mph88%30.39 "HgN/A
11:00 PM54 °FMostly cloudy.15 mph88%30.39 "HgN/A
10:30 PM54 °FOvercast.16 mph88%30.39 "HgN/A
10:00 PM54 °FOvercast.15 mph88%30.39 "HgN/A
9:30 PM54 °FMostly cloudy.13 mph88%30.39 "HgN/A
9:00 PM54 °FPassing clouds.12 mph88%30.39 "HgN/A
8:30 PM54 °FPassing clouds.14 mph88%30.39 "HgN/A
8:00 PM54 °FPassing clouds.13 mph88%30.39 "HgN/A
7:30 PM55 °FPassing clouds.14 mph82%30.36 "HgN/A
7:00 PM54 °FPartly cloudy.15 mph88%30.36 "HgN/A
6:30 PM55 °FOvercast.15 mph82%30.36 "HgN/A
6:00 PM55 °FPassing clouds.16 mph82%30.36 "HgN/A
5:30 PM55 °FOvercast.15 mph88%30.36 "HgN/A
5:00 PM55 °FMore clouds than sun.14 mph88%30.36 "HgN/A
4:30 PM55 °FMostly cloudy.16 mph88%30.33 "HgN/A
4:00 PM55 °FBroken clouds.16 mph88%30.33 "HgN/A
3:30 PM55 °FPartly sunny.15 mph88%30.33 "HgN/A
3:00 PM55 °FOvercast.20 mph88%30.33 "HgN/A
2:30 PM55 °FOvercast.20 mph88%30.33 "HgN/A
2:00 PM55 °FOvercast.22 mph88%30.33 "HgN/A
1:30 PM54 °FMostly cloudy.17 mph94%30.33 "HgN/A
1:00 PM54 °FBroken clouds.16 mph100%30.33 "HgN/A
12:30 PM54 °FPartly sunny.21 mph94%30.33 "HgN/A
12:00 PM54 °FDrizzle. Mostly cloudy.18 mph94%30.33 "Hg6 mi
11:30 AM54 °FLight rain. Overcast.17 mph94%30.36 "Hg4 mi
11:00 AM54 °FLight rain. Overcast.16 mph88%30.36 "Hg5 mi
10:30 AM54 °FLight rain. Mostly cloudy.20 mph94%30.33 "HgN/A
10:00 AM54 °FDrizzle. Overcast.16 mph88%30.30 "HgN/A
9:30 AM52 °FLight rain. Overcast.12 mph94%30.30 "HgN/A
9:00 AM52 °FLight rain. Overcast.14 mph94%30.30 "HgN/A
8:30 AM52 °FLight rain. Overcast.14 mph94%30.30 "HgN/A
8:00 AM52 °FLight rain. Mostly cloudy.16 mph94%30.27 "HgN/A
Weather by CustomWeather, © 2014

See weather overviewHow to use our weather pages